Location: Czekanka
(50.4925°N, 19.2643°E)
Time: 11:58:43
(UTC+00:00)

FENGYUN 1C DEB - Pass Details

Date: 18 November 2025
Orbit: 800 x 866 km, 98.6° (Epoch: 04 December)

Event Time Altitude Azimuth Distance (km) Brightness Sun altitude
Rises 02:08:01 0° 24° (NNE) 3,335 ? -36.8°
Reaches altitude 10° 02:10:48 10° 37° (NE) 2,392 ? -36.4°
Maximum altitude 02:15:04 25° 92° (E) 1,590 ? -35.7°
Drops below altitude 10° 02:19:18 10° 146° (SE) 2,371 ? -35.1°
Sets 02:22:02 0° 160° (SSE) 3,298 ? -34.6°
